ALEXIS

导读

ALEXIS(亚历克西斯)是美国于1993年4月25日发射的科学卫星,由洛斯阿拉莫斯国家实验室等机构联合研制。卫星总重113千克,运行在750-850千米、倾角70°的轨道上,搭载低能X射线成像传感器阵列与BLACKBEARD接收器,主要开展极紫外/软X射线巡天观测,同时研究电离层对雷电脉冲的传播效应,为空间天文与电离层研究提供了珍贵数据。

基本信息
目录编号:
22638
目录名称:
ALEXIS
国际标识:
1993-026A
轨道中心:
EARTH
卫星名称:
ALEXIS
卫星全名:
--
卫星状态:
在轨 (已飞行12133 天)
发射日期:
1993-04-25 UTC
国别 :
美国 (US)
星等 :
--
轨道信息
数据来源 国际轨道数据
星历时间: 2026-07-14T12:30:46+0800
5小时前
查看轨道信息
半长轴: 7157.605km
偏心率: 0.0056682
轨道倾角: 69.919°
近地点辐角 122.886°
升交点赤经 234.910°
平近点角 237.773°
近地点: 738.897km
远地点: 820.039km
周期: 100.441分钟
每日圈数: 14.336768
详细信息
使用方式:
暂无
2D轨道图
3D轨道图
轨道高度分析图
轨道倾角分析图
轨道综合分析图
查看轨道综合分析图